Temperature
7 7 6 6 6 6 6 6 6 6 6 6 6 6 6 6 6 6 6 6 6 6 6 6 6 6 6 6 6 5 5 5 5 5 5 5 5 5 5 5 4 4 4
7 7 6 6 6 6 6 6 6 6 6 6 6 6 6 6 6 6 6 6 6 6 6 5 5 5 5 5 5 5 5 5 4 4 5 5 4 4 4 4 4 4 4
6 6 6 6 6 6 6 6 6 6 6 6 6 6 6 6 6 6 5 5 5 5 5 5 5 5 5 5 5 4 4 4 4 4 4 4 4 4 3 3 4 4 4
6 6 6 5 5 5 5 5 5 5 5 5 5 5 5 5 5 5 5 5 5 5 5 5 5 4 4 4 4 4 4 4 3 3 3 3 3 3 3 3 3 3 3
5 5 5 5 5 5 5 5 5 5 5 5 5 5 5 5 5 5 5 4 4 4 4 4 4 4 4 4 4 4 3 3 3 3 3 3 3 3 3 2 2 2 3
5 5 5 5 4 4 4 4 4 4 4 4 4 4 4 4 4 4 4 4 4 4 4 4 3 4 3 3 3 3 3 3 3 3 3 2 3 2 2 2 2 2 2
4 4 4 4 4 4 4 4 4 4 4 4 4 4 4 4 3 3 3 3 3 3 3 3 3 3 3 3 3 3 3 2 2 2 2 2 2 2 1 1 1 1 1
4 4 4 4 4 4 4 3 3 3 3 3 3 3 3 3 3 3 3 3 3 3 3 3 3 3 3 3 2 2 2 2 2 2 2 2 1 1 1 1 0 0 0
3 3 3 3 3 3 3 3 3 3 3 3 3 3 3 3 2 2 2 2 2 2 2 2 2 2 2 2 2 2 2 2 1 1 1 1 1 1 0 -0 -0 -0 -0
3 3 3 3 3 3 3 3 3 3 3 2 2 2 2 2 2 2 2 2 2 2 2 2 2 2 2 1 1 1 1 1 1 1 1 1 0 0 -0 -0 -1 -1 -1
2 2 2 2 2 2 2 2 2 2 2 2 2 2 2 2 2 1 1 1 1 1 1 1 1 1 1 1 1 1 1 0 0 0 0 -0 -0 -0 -0 -1 -1 -1 -2
2 2 2 2 2 2 2 2 2 2 2 1 1 1 1 1 1 1 1 1 1 1 1 1 1 1 1 0 0 0 -0 -0 -0 -1 -1 -1 -1 -1 -1 -1 -1 -2 -2
1 1 1 1 1 1 1 1 1 1 1 1 1 1 1 1 1 1 1 1 1 1 1 1 1 0 0 -0 -0 -0 -1 -1 -1 -1 -1 -1 -1 -2 -2 -2 -2 -2 -2
1 1 1 1 1 1 1 1 1 1 1 0 0 0 0 0 0 0 0 0 0 0 -0 -0 -0 -0 -0 -0 -1 -1 -1 -1 -1 -1 -2 -2 -2 -2 -2 -3 -3 -3 -3
0 0 0 1 0 0 0 0 0 0 0 0 0 0 -0 0 0 -0 -0 -0 -0 -0 -1 -1 -1 -1 -1 -1 -1 -1 -1 -2 -2 -2 -2 -3 -3 -3 -3 -3 -3 -3 -4
-0 -0 -0 -0 -0 -0 -0 -0 -0 -0 -0 -0 -0 -0 -0 -0 -0 -0 -1 -1 -1 -1 -1 -1 -1 -1 -1 -1 -2 -2 -2 -2 -2 -3 -3 -3 -3 -4 -4 -4 -4 -4 -4
-1 -1 -1 -1 -1 -1 -1 -1 -1 -1 -1 -1 -1 -1 -1 -1 -1 -1 -1 -1 -1 -2 -2 -2 -2 -2 -2 -2 -2 -2 -2 -3 -3 -3 -4 -4 -4 -4 -5 -5 -5 -5 -5
-1 -1 -1 -1 -1 -1 -1 -1 -1 -1 -1 -1 -1 -2 -2 -2 -2 -2 -2 -2 -2 -2 -2 -2 -2 -2 -2 -3 -3 -3 -3 -3 -4 -4 -4 -5 -5 -5 -5 -5 -5 -5 -5
-2 -2 -2 -2 -2 -2 -2 -2 -2 -2 -2 -2 -2 -2 -2 -2 -2 -2 -2 -2 -2 -2 -3 -3 -3 -3 -3 -3 -3 -4 -4 -4 -4 -5 -5 -5 -5 -5 -5 -5 -6 -6 -6
-3 -3 -2 -2 -2 -3 -3 -3 -3 -3 -3 -3 -3 -3 -3 -3 -3 -3 -3 -3 -3 -3 -3 -3 -4 -4 -4 -4 -4 -4 -5 -5 -5 -5 -6 -6 -6 -6 -6 -6 -6 -6 -6
-3 -3 -3 -3 -3 -3 -3 -3 -3 -3 -3 -3 -3 -4 -4 -4 -3 -3 -3 -4 -4 -4 -4 -4 -4 -5 -5 -5 -5 -5 -5 -5 -6 -6 -6 -6 -6 -6 -6 -6 -6 -6 -7
-4 -4 -4 -4 -4 -4 -4 -4 -4 -4 -4 -4 -4 -4 -4 -4 -4 -4 -4 -4 -4 -4 -5 -5 -5 -5 -5 -5 -6 -6 -6 -6 -6 -6 -6 -6 -6 -6 -7 -7 -7 -7 -7
-5 -5 -5 -5 -5 -5 -5 -5 -5 -5 -5 -5 -5 -5 -5 -5 -5 -5 -5 -5 -5 -5 -5 -5 -5 -6 -6 -6 -6 -6 -6 -6 -6 -6 -6 -7 -7 -7 -7 -7 -7 -7 -7
-5 -5 -5 -5 -5 -5 -5 -5 -5 -5 -5 -5 -5 -5 -5 -5 -6 -6 -6 -6 -6 -6 -6 -6 -6 -6 -6 -6 -6 -6 -6 -7 -7 -7 -7 -7 -7 -7 -7 -7 -7 -7 -8
-6 -6 -6 -6 -6 -6 -6 -6 -6 -6 -6 -6 -6 -6 -6 -6 -6 -6 -6 -6 -6 -6 -6 -6 -6 -6 -6 -6 -7 -7 -7 -7 -7 -7 -7 -7 -7 -7 -7 -8 -8 -8 -8
-7 -7 -7 -7 -7 -7 -7 -7 -7 -7 -7 -7 -7 -7 -7 -7 -7 -7 -7 -7 -7 -7 -7 -7 -7 -7 -7 -7 -7 -7 -7 -7 -7 -7 -7 -8 -8 -8 -8 -8 -8 -8 -8
Wind_Speed
9 9 8 8 7 7 7 8 7 6 6 7 7 7 7 6 6 5 4 5 5 4 3 4 3 3 2 2 2 2 2 2 3 4 2 2 3 4 4 6 7 7 8
8 8 8 8 7 7 7 7 7 7 7 7 7 7 7 7 6 7 6 6 6 5 5 4 4 3 3 3 3 3 3 3 3 4 3 2 3 4 3 4 5 6 7
7 8 7 7 8 8 7 7 7 7 7 7 7 7 7 7 7 7 7 6 6 6 6 6 5 4 4 3 4 4 3 3 2 3 4 3 3 2 2 3 3 4 6
6 7 7 7 8 7 7 7 7 7 7 7 7 7 7 7 7 6 6 6 6 5 5 6 6 6 6 6 5 5 3 3 2 3 3 3 3 2 2 3 4 3 4
6 6 7 6 6 6 6 6 6 6 7 7 6 6 6 6 6 7 6 6 6 5 5 5 6 7 8 6 5 5 5 4 3 3 4 3 3 2 3 3 4 4 4
5 5 5 5 5 5 6 6 6 6 6 6 6 6 6 5 6 7 6 6 5 6 5 5 5 6 7 8 8 8 7 6 5 4 4 5 5 4 3 3 3 3 4
5 4 4 5 5 5 6 6 6 6 6 6 6 6 6 6 7 7 7 5 5 6 5 5 4 4 5 4 6 6 7 8 8 6 6 7 5 4 4 4 4 4 5
4 4 4 5 5 5 5 6 6 5 6 6 6 6 5 5 6 7 7 4 4 5 5 5 5 5 4 4 4 4 4 5 7 6 6 7 6 5 5 5 4 4 4
4 4 4 5 5 5 5 6 5 5 5 5 5 6 5 5 7 7 6 4 3 4 4 4 5 5 5 5 3 4 4 4 6 8 9 8 8 8 5 2 2 3 5
3 4 4 4 5 5 5 5 4 4 4 4 4 5 5 5 6 7 6 4 4 3 3 4 5 5 6 5 4 5 5 5 3 3 3 4 4 6 6 5 4 4 3
2 2 3 3 4 4 3 3 4 4 4 4 4 3 4 4 5 6 5 4 4 4 3 3 4 6 6 6 5 5 6 4 3 3 3 3 2 2 3 4 4 4 4
1 1 2 2 2 2 3 3 3 4 4 4 3 2 2 2 3 4 5 4 4 4 5 4 4 6 6 6 4 4 5 3 2 2 2 2 3 3 3 3 5 6 6
1 1 1 1 1 2 3 3 3 4 4 3 3 3 2 2 3 4 4 4 4 3 4 5 5 4 3 3 4 4 2 2 2 2 3 3 3 3 3 2 3 3 4
1 1 1 1 1 1 1 2 3 4 4 3 3 3 3 2 2 3 3 2 2 2 2 3 2 2 2 2 2 2 1 2 2 3 3 3 2 2 2 2 2 2 3
1 1 1 1 1 1 1 1 2 3 4 4 4 4 4 4 4 4 3 3 3 3 2 1 1 1 1 1 1 1 1 1 2 2 2 3 3 2 2 2 2 2 3
1 1 1 1 1 1 1 1 2 0 1 1 2 3 3 4 4 4 4 3 3 2 2 2 2 2 3 3 3 2 2 3 3 2 2 3 3 3 3 2 2 3 4
0 0 0 1 1 1 1 1 0 2 2 1 0 1 2 3 3 3 3 2 2 2 2 2 3 3 3 3 3 3 3 3 3 3 3 3 3 3 3 3 3 3 4
1 1 1 1 1 1 1 1 1 1 1 1 1 1 2 2 3 2 2 1 2 2 2 3 4 4 3 3 3 3 3 3 3 3 3 3 3 3 3 3 3 4 4
1 1 1 0 0 1 1 1 1 1 1 1 1 1 1 2 2 2 2 2 3 3 3 4 4 3 3 3 4 4 3 3 3 3 3 4 4 3 4 4 4 6 5
2 3 2 1 0 0 1 1 1 1 1 1 2 2 1 1 1 2 2 2 3 3 3 3 3 3 3 3 3 3 4 4 4 4 4 4 4 4 4 5 4 4 4
1 2 3 2 1 1 1 1 1 2 2 2 2 3 3 2 3 3 3 3 3 3 3 3 3 3 3 3 4 4 5 5 4 4 4 4 4 4 4 4 4 4 4
1 1 1 1 1 1 1 1 1 2 2 2 2 2 4 2 2 3 3 3 3 3 3 3 3 3 4 4 4 4 5 5 5 5 5 4 4 4 4 4 4 4 4
1 1 2 1 1 2 2 1 2 2 2 2 2 2 2 2 2 3 3 3 3 3 3 3 3 3 4 4 5 5 5 5 5 5 5 5 5 5 4 5 5 5 5
1 2 2 2 1 1 2 2 2 2 2 2 2 3 2 2 2 3 3 3 3 3 3 3 4 5 5 5 5 6 7 7 7 6 6 6 5 5 4 5 5 5 5
2 2 2 2 2 2 2 2 2 2 2 2 2 2 2 2 2 2 2 2 2 3 3 3 3 4 5 6 6 6 8 9 8 7 6 5 5 5 5 5 5 5 5
2 2 2 2 2 2 2 2 2 2 2 2 2 2 2 2 2 2 2 2 2 2 3 3 4 4 5 6 7 7 8 9 9 8 6 4 5 5 5 5 5 5 5
Wind_Direction
186 184 184 188 187 188 190 193 191 191 184 189 187 186 186 186 182 181 187 182 183 191 192 193 208 204 206 205 190 190 199 193 242 272 269 265 238 244 263 265 270 271 275
185 182 186 189 188 190 196 196 190 190 188 190 185 184 189 188 185 185 189 190 190 196 204 201 213 208 210 208 202 208 213 210 219 262 280 276 258 247 244 249 268 274 276
182 180 183 188 190 194 198 196 190 187 186 187 184 187 190 189 188 190 191 195 197 202 204 207 214 207 220 220 215 217 220 231 224 239 265 271 271 267 264 274 273 273 278
179 179 186 191 193 193 194 193 190 186 185 189 191 192 191 190 191 191 192 194 198 204 208 209 210 211 216 214 217 216 213 220 226 230 257 264 265 270 253 265 283 275 278
179 182 191 191 187 184 186 186 185 186 191 189 190 191 189 190 194 190 191 196 198 205 214 218 218 219 219 215 217 212 205 212 222 229 245 263 257 255 253 252 269 283 280
183 186 181 179 178 180 181 180 180 184 185 185 191 190 193 204 201 196 192 197 202 204 214 224 228 222 226 231 233 226 214 211 219 225 242 248 252 245 246 254 266 283 279
185 183 178 178 179 183 180 177 184 186 182 188 192 192 197 203 199 198 197 196 204 208 209 215 229 234 225 220 236 239 236 238 232 223 232 241 244 235 232 247 249 256 260
178 186 189 184 187 185 181 184 187 184 187 192 193 193 194 204 202 203 199 196 205 212 211 211 216 222 221 213 218 233 239 241 243 235 231 238 239 233 227 234 246 263 271
183 197 202 189 186 187 191 192 189 186 191 193 191 192 195 207 207 203 193 191 210 224 222 215 212 215 228 224 211 226 251 265 261 251 248 247 248 246 237 227 242 257 277
200 201 200 189 184 192 199 196 190 188 191 186 189 193 196 205 210 205 196 190 209 224 230 226 224 226 233 231 213 214 237 253 254 272 267 266 253 245 240 222 217 240 266
208 191 191 187 180 184 183 182 178 179 174 178 187 197 200 208 208 206 202 195 203 212 222 230 230 233 237 238 237 224 239 245 232 236 251 260 264 248 238 226 218 223 243
97 157 175 174 170 165 167 176 176 169 168 178 180 193 211 212 208 209 211 217 212 208 220 225 227 233 239 243 247 249 254 255 220 231 247 255 254 254 253 235 236 237 239
90 106 136 136 148 167 171 175 173 170 174 183 184 195 213 216 218 223 219 221 225 223 223 229 240 242 246 242 249 251 242 215 218 241 251 259 253 248 249 260 263 256 260
114 112 131 143 146 152 174 178 174 179 181 186 194 200 207 213 215 215 218 225 235 243 240 235 246 242 244 247 250 245 229 219 226 240 254 261 256 249 249 246 258 263 273
81 88 107 140 154 161 172 191 190 200 198 196 199 196 197 215 228 229 219 218 213 214 197 175 157 192 234 254 252 246 241 237 252 250 254 266 267 264 265 262 249 251 256
81 71 101 134 146 149 137 38 15 178 225 223 209 207 220 229 232 238 246 242 237 212 178 184 206 213 225 233 241 250 247 245 246 247 251 256 259 260 269 274 261 251 258
74 33 136 149 152 162 164 156 63 17 29 25 246 254 245 238 236 243 244 225 215 196 196 204 221 227 233 235 240 243 251 254 248 248 251 255 258 261 269 270 268 268 266
10 355 346 173 170 186 201 202 199 208 259 291 282 264 255 245 242 236 222 190 196 198 201 214 226 229 231 235 239 245 251 250 246 248 252 256 256 258 264 265 261 263 268
353 345 335 225 181 190 195 196 201 212 222 245 275 277 258 251 245 216 194 189 200 215 218 223 229 232 235 239 243 244 242 242 242 241 246 250 250 253 259 260 261 272 276
338 332 343 325 231 215 202 200 208 215 224 230 244 251 247 244 215 212 209 205 211 222 225 230 233 234 238 240 242 243 244 243 241 242 245 247 246 245 252 256 256 261 264
329 332 339 339 300 256 234 230 231 230 239 245 249 252 252 230 223 225 225 221 220 227 229 232 237 239 239 241 241 243 245 246 239 236 238 243 243 248 251 252 255 256 262
310 304 311 309 302 285 273 251 244 246 251 260 270 276 280 268 237 236 241 243 236 231 228 228 236 238 234 235 238 244 249 246 239 233 236 241 243 247 251 255 258 258 260
322 317 315 309 301 297 305 280 261 256 255 254 259 263 265 253 250 248 248 249 245 244 243 239 242 249 249 245 238 236 242 244 240 233 232 238 242 244 245 252 254 256 257
326 315 305 304 305 282 275 274 266 262 257 255 256 256 254 253 259 262 255 252 253 252 249 247 249 250 254 257 251 248 247 248 242 234 230 236 242 245 246 250 252 254 256
314 303 299 294 292 288 284 278 272 268 267 267 265 265 263 257 256 264 266 257 254 254 260 261 259 255 256 257 258 258 260 262 257 244 231 232 238 240 243 247 251 253 254
309 302 299 297 293 291 287 284 283 281 280 279 274 271 268 261 262 266 269 266 268 269 270 269 264 263 264 266 265 267 270 270 266 260 247 233 236 240 237 242 242 244 250
Height
1447 1449 1452 1454 1456 1458 1460 1462 1464 1466 1468 1471 1473 1475 1477 1479 1481 1483 1485 1487 1488 1490 1491 1493 1493 1494 1495 1496 1497 1497 1498 1498 1496 1495 1496 1496 1496 1496 1496 1496 1495 1494 1494
1443 1445 1448 1450 1451 1453 1456 1458 1460 1462 1465 1467 1469 1471 1473 1475 1477 1479 1481 1483 1484 1486 1487 1488 1489 1490 1491 1492 1493 1493 1493 1493 1493 1491 1491 1491 1491 1491 1491 1491 1490 1490 1489
1440 1441 1443 1445 1447 1449 1452 1454 1456 1459 1461 1463 1465 1467 1469 1471 1473 1475 1477 1478 1480 1481 1483 1484 1485 1486 1487 1488 1488 1488 1489 1489 1488 1488 1487 1487 1487 1487 1486 1485 1485 1484 1484
1436 1438 1439 1441 1443 1446 1448 1450 1452 1454 1456 1458 1461 1463 1465 1467 1469 1470 1472 1474 1475 1477 1478 1479 1480 1481 1482 1483 1483 1484 1484 1484 1484 1483 1482 1482 1482 1481 1481 1480 1479 1479 1478
1432 1434 1435 1437 1440 1442 1444 1446 1448 1450 1452 1454 1457 1458 1461 1463 1464 1466 1467 1469 1471 1472 1473 1475 1476 1477 1478 1479 1479 1479 1479 1479 1479 1478 1477 1477 1476 1476 1476 1475 1474 1473 1472
1429 1430 1432 1434 1436 1438 1440 1442 1444 1446 1448 1450 1452 1454 1456 1458 1460 1461 1463 1465 1466 1467 1468 1470 1471 1472 1473 1474 1474 1474 1475 1474 1474 1473 1472 1472 1471 1471 1471 1470 1469 1467 1466
1425 1427 1429 1430 1432 1434 1436 1438 1440 1442 1444 1446 1448 1450 1452 1454 1455 1457 1458 1460 1461 1462 1463 1465 1466 1467 1468 1468 1469 1469 1469 1469 1469 1469 1468 1467 1466 1466 1466 1465 1464 1463 1462
1422 1424 1426 1427 1429 1431 1433 1434 1436 1438 1440 1442 1444 1446 1448 1449 1451 1452 1454 1456 1457 1458 1459 1460 1461 1462 1463 1463 1463 1463 1463 1463 1463 1463 1463 1462 1462 1461 1461 1460 1459 1458 1457
1419 1421 1423 1424 1426 1428 1429 1431 1433 1435 1437 1438 1440 1442 1444 1445 1447 1448 1450 1451 1452 1453 1455 1456 1456 1457 1458 1458 1458 1458 1457 1458 1458 1458 1457 1457 1456 1456 1456 1455 1453 1452 1450
1416 1418 1420 1421 1423 1424 1426 1428 1429 1431 1433 1435 1436 1438 1440 1441 1443 1444 1446 1447 1448 1449 1450 1451 1452 1452 1453 1453 1453 1453 1452 1452 1452 1452 1452 1451 1451 1450 1450 1450 1449 1447 1445
1414 1415 1417 1418 1420 1421 1423 1425 1426 1428 1429 1431 1433 1434 1436 1437 1439 1440 1441 1443 1443 1444 1445 1446 1447 1448 1448 1449 1449 1448 1448 1448 1447 1447 1446 1445 1445 1444 1444 1443 1443 1442 1441
1412 1413 1414 1415 1416 1418 1420 1421 1423 1424 1426 1427 1429 1431 1432 1434 1435 1436 1437 1439 1440 1440 1441 1441 1442 1443 1443 1444 1444 1444 1444 1443 1442 1442 1441 1439 1439 1438 1438 1437 1437 1437 1436
1410 1410 1411 1412 1414 1415 1417 1418 1419 1421 1422 1423 1425 1427 1428 1430 1431 1433 1434 1435 1436 1436 1437 1437 1438 1438 1439 1439 1439 1439 1439 1438 1437 1436 1435 1434 1433 1433 1432 1432 1431 1431 1430
1408 1408 1409 1410 1411 1412 1414 1415 1416 1417 1418 1420 1422 1423 1425 1426 1427 1429 1430 1431 1431 1432 1433 1433 1434 1434 1434 1435 1435 1435 1434 1433 1433 1431 1430 1429 1428 1427 1427 1426 1425 1425 1424
1406 1406 1407 1407 1408 1409 1411 1412 1413 1414 1416 1417 1418 1420 1421 1422 1423 1425 1426 1426 1427 1428 1428 1429 1429 1430 1430 1430 1430 1430 1430 1429 1428 1427 1426 1425 1423 1422 1421 1421 1420 1419 1419
1405 1405 1405 1405 1406 1407 1408 1409 1411 1412 1413 1414 1415 1416 1417 1419 1420 1421 1422 1423 1423 1424 1424 1424 1425 1425 1425 1425 1425 1425 1425 1424 1423 1423 1421 1420 1419 1418 1417 1416 1415 1415 1414
1403 1403 1403 1404 1404 1405 1406 1406 1407 1409 1411 1412 1413 1413 1414 1415 1416 1417 1417 1418 1419 1420 1420 1420 1421 1421 1421 1421 1421 1420 1420 1419 1419 1418 1417 1416 1415 1414 1413 1411 1411 1410 1409
1402 1402 1402 1402 1403 1403 1404 1405 1405 1405 1406 1408 1409 1410 1410 1411 1412 1412 1413 1414 1415 1415 1416 1416 1416 1417 1416 1416 1416 1415 1415 1415 1414 1414 1413 1412 1411 1410 1409 1408 1407 1406 1405
1401 1401 1400 1401 1401 1402 1402 1402 1403 1403 1404 1404 1405 1406 1407 1408 1408 1409 1409 1410 1410 1410 1411 1412 1412 1412 1412 1411 1411 1411 1410 1410 1410 1409 1408 1408 1407 1406 1405 1404 1403 1402 1401
1399 1399 1399 1399 1399 1399 1399 1400 1400 1400 1400 1401 1402 1402 1403 1404 1404 1404 1405 1405 1406 1406 1406 1407 1407 1407 1407 1406 1406 1406 1405 1405 1405 1404 1404 1403 1402 1402 1401 1400 1399 1398 1397
1397 1397 1397 1396 1396 1396 1397 1397 1397 1397 1397 1398 1398 1399 1399 1399 1399 1400 1401 1401 1401 1402 1402 1402 1402 1402 1402 1402 1401 1401 1400 1400 1400 1399 1399 1398 1398 1397 1396 1395 1395 1394 1393
1395 1395 1394 1394 1394 1394 1394 1394 1394 1394 1394 1394 1395 1395 1396 1396 1396 1396 1397 1397 1397 1397 1398 1397 1397 1397 1397 1397 1396 1396 1395 1395 1394 1394 1394 1393 1393 1392 1392 1391 1390 1389 1388
1393 1392 1391 1391 1391 1391 1391 1391 1391 1391 1391 1392 1392 1392 1392 1392 1392 1392 1393 1393 1393 1393 1393 1393 1392 1392 1392 1392 1391 1391 1390 1390 1389 1389 1389 1388 1388 1387 1387 1386 1386 1385 1384
1390 1390 1389 1389 1388 1388 1388 1388 1388 1388 1388 1388 1388 1388 1389 1389 1389 1389 1389 1389 1389 1388 1388 1388 1388 1387 1387 1386 1386 1386 1385 1385 1384 1384 1384 1383 1383 1382 1382 1381 1381 1381 1380
1388 1388 1387 1387 1386 1386 1385 1385 1385 1385 1385 1385 1385 1385 1385 1385 1385 1385 1385 1385 1384 1384 1384 1384 1383 1382 1382 1382 1381 1381 1380 1380 1380 1379 1379 1378 1378 1378 1377 1377 1377 1376 1376
1386 1386 1385 1384 1384 1383 1383 1383 1382 1382 1382 1382 1381 1381 1381 1381 1381 1381 1381 1381 1380 1380 1380 1379 1379 1378 1378 1377 1377 1376 1376 1375 1375 1375 1374 1374 1374 1373 1373 1373 1373 1372 1372